Location: Augirein
(42.9320°N, 0.9181°E)
Time: 20:01:44
(UTC+00:00)

SL-16 R/B - Pass Details

Date: 20 June 2021
Orbit: 842 x 847 km, 71.0° (Epoch: 31 July)

Event Time Altitude Azimuth Distance (km) Brightness Sun altitude
Exits shadow 00:20:02 35° 244° (WSW) 1,339 2.9 -23.4°
Maximum altitude 00:22:06 52° 299° (WNW) 1,042 2.7 -23.4°
Drops below altitude 10° 00:27:39 10° 16° (NNE) 2,472 5.7 -23.3°
Sets 00:30:10 0° 21° (NNE) 3,410 6.7 -23.2°
